Wind_Speed
33 35 36 38 40 41 41 42 42 43 43 45 46 47 47 47 48 49 49 50 50 51 52 53 54 55 56 57 59 60 62 63 64 63 64 64 64 65 65 66 68 69 69
32 33 34 36 38 39 41 42 43 44 46 46 47 48 48 47 48 49 50 51 51 51 52 53 54 55 56 58 59 60 61 62 63 63 62 63 64 65 66 67 67 67 67
32 33 34 35 37 39 40 42 43 44 46 46 47 47 48 49 49 49 50 51 52 53 53 54 54 55 56 57 58 59 61 63 63 63 63 63 64 65 67 67 67 68 67
33 34 35 36 37 38 40 41 43 45 46 46 46 47 48 48 49 50 50 51 52 53 53 54 55 56 57 58 59 60 62 63 63 63 64 64 65 66 67 67 67 67 67
33 34 36 37 38 39 41 42 43 44 45 45 46 46 47 47 48 49 50 51 52 52 53 55 55 56 58 59 60 61 62 62 63 64 64 65 65 65 65 66 66 65 65
34 35 36 37 38 40 40 41 42 43 44 45 46 46 47 48 48 49 50 51 52 53 54 55 56 57 58 59 60 60 60 61 62 63 63 63 63 64 65 64 64 64 64
35 36 37 38 39 40 41 41 42 43 44 44 45 46 47 48 48 49 51 52 52 53 54 55 56 57 58 58 58 58 58 59 60 61 61 61 62 62 63 62 63 63 63
36 37 38 39 39 39 40 42 43 44 44 44 45 46 47 48 49 50 50 51 52 53 54 55 56 57 58 58 57 56 57 58 59 59 59 59 59 59 60 61 61 62 61
36 37 38 38 39 40 41 43 44 45 45 45 45 45 46 47 49 50 50 51 53 54 55 55 56 57 57 56 56 55 55 56 56 56 57 57 57 58 59 59 60 60 58
35 36 37 38 39 41 43 44 45 45 44 45 45 45 46 48 49 51 52 53 54 55 55 55 55 56 56 55 55 55 55 55 55 54 54 55 56 56 57 58 58 57 55
36 37 38 39 41 43 44 45 46 45 45 45 45 46 48 49 51 52 53 54 54 54 54 54 54 54 54 54 54 55 55 55 54 53 54 54 54 55 55 56 55 54 52
38 39 40 41 42 44 45 46 46 45 46 46 47 48 50 51 52 52 53 54 54 54 54 54 54 53 53 53 54 54 54 54 53 53 53 53 53 53 53 53 52 51 50
39 40 41 42 44 45 45 46 46 46 47 47 48 49 50 51 52 52 53 53 53 53 54 54 53 53 53 53 53 53 53 52 52 51 52 52 51 51 51 51 49 48 47
40 41 42 43 44 45 46 47 47 48 48 49 50 50 50 51 51 52 52 52 52 52 52 52 51 52 52 52 51 51 51 51 50 50 50 50 49 49 49 49 47 45 43
41 43 44 45 45 46 47 48 49 49 50 49 50 50 50 51 51 51 51 51 51 51 51 50 50 50 49 49 49 49 49 49 49 48 48 48 48 48 48 46 44 43 41
44 46 46 46 47 48 49 49 49 49 49 50 50 51 51 51 50 50 50 50 50 50 50 49 49 48 48 47 47 48 48 48 47 47 47 47 47 47 46 44 43 41 40
46 47 47 48 49 50 50 50 50 50 50 50 51 51 50 50 50 49 49 49 49 49 48 47 47 47 47 47 47 46 46 46 45 45 45 46 46 46 44 41 40 39 39
47 48 48 49 51 51 51 51 50 50 50 50 50 50 49 49 49 49 48 48 48 47 47 47 46 46 46 46 46 45 45 45 45 44 45 45 45 44 42 40 38 38 38
49 49 50 51 52 52 51 51 51 51 51 50 50 49 49 48 48 48 48 48 47 47 47 46 46 45 45 45 45 45 45 44 43 43 43 43 43 42 40 39 38 37 37
50 51 52 52 52 52 52 51 51 51 51 50 49 48 48 47 46 46 47 47 47 46 46 45 45 44 44 44 44 44 43 42 42 42 42 42 42 40 39 38 37 36 36
51 52 52 53 53 53 52 52 52 51 50 49 48 47 46 46 46 46 46 46 46 45 45 45 44 43 43 43 43 43 42 42 42 42 42 42 41 39 38 37 36 35 35
53 54 54 54 54 53 53 52 51 49 48 47 47 46 45 45 45 45 45 45 45 45 44 44 43 42 42 42 42 42 42 41 41 41 41 40 39 38 37 36 35 35 35
56 56 55 55 54 53 53 52 50 49 47 46 46 45 45 45 45 44 44 45 45 44 44 43 42 42 42 42 41 41 41 41 41 41 40 39 38 37 36 36 35 35 34
57 56 55 54 53 53 52 51 50 48 47 47 46 45 45 45 45 44 44 44 44 44 43 42 42 42 41 41 41 41 40 40 40 39 39 38 36 36 35 35 35 34 33
56 55 54 53 52 52 51 50 49 47 47 46 45 45 44 44 44 44 44 44 44 43 42 42 41 41 41 41 41 40 40 40 39 38 37 36 35 34 34 34 34 33 32
54 53 52 52 52 51 51 50 48 47 46 46 45 45 44 44 44 44 44 44 43 42 42 41 41 40 40 41 40 40 39 38 37 36 36 35 34 33 33 33 32 31 31
Wind_Direction
284 284 284 285 284 285 285 286 286 287 288 289 289 289 290 289 290 291 292 292 293 293 293 293 293 292 292 292 292 292 292 292 292 291 291 290 289 289 289 289 290 290 288
289 289 289 289 288 287 287 287 287 288 289 290 290 290 290 291 292 292 292 293 294 294 295 295 294 293 293 293 293 293 293 293 293 292 291 290 290 290 290 291 291 290 289
291 291 291 291 290 291 290 290 289 290 291 291 291 291 290 292 293 294 294 295 296 296 297 296 296 295 295 295 295 295 295 294 294 293 293 292 291 291 291 291 290 291 290
292 292 292 293 293 293 294 294 293 292 292 291 292 292 293 294 295 296 297 298 298 298 298 298 298 298 298 298 297 297 297 296 296 295 295 294 294 293 292 292 291 291 291
294 294 294 294 294 294 295 296 296 296 295 294 294 294 294 295 296 298 299 299 299 299 299 299 300 300 300 300 300 300 299 299 299 298 298 297 296 294 294 293 293 292 293
297 297 297 297 297 297 298 298 299 299 297 296 295 295 295 296 297 299 300 300 300 300 301 301 302 302 303 303 303 302 301 301 300 300 299 299 298 297 296 295 296 295 294
299 299 299 299 298 299 299 300 300 300 300 299 297 297 297 298 299 300 301 301 302 302 303 303 304 304 305 305 304 303 302 302 301 301 301 301 300 299 298 298 298 298 298
300 300 300 300 300 300 301 302 302 302 301 300 299 299 299 300 301 301 302 303 304 304 305 305 304 305 305 305 304 304 304 304 304 303 303 303 303 302 301 301 301 300 300
300 300 300 301 301 302 303 303 303 303 302 301 302 302 302 301 301 302 302 303 304 305 305 306 306 306 306 305 305 306 306 305 305 305 305 305 305 305 305 304 304 303 302
301 302 302 301 302 302 303 304 304 303 302 302 302 303 303 302 302 302 302 303 304 304 306 307 307 307 307 306 307 307 307 307 307 307 307 307 308 308 307 307 306 305 304
302 302 302 302 303 303 304 305 305 304 303 303 303 303 303 303 303 303 303 303 304 305 305 306 307 307 307 307 307 308 309 309 309 309 309 309 309 309 309 308 307 306 306
302 302 303 303 303 304 305 306 306 305 305 304 304 304 304 305 305 304 304 304 305 305 306 307 307 307 307 308 308 309 310 310 310 310 310 310 310 310 310 309 308 307 307
303 303 303 304 305 305 306 306 306 305 305 305 305 305 306 306 306 306 305 305 305 306 307 308 308 307 308 308 309 310 311 311 311 312 312 312 312 312 311 311 309 308 308
303 303 304 304 305 305 306 306 305 305 304 305 306 306 307 307 306 306 306 306 306 307 307 307 308 308 309 310 310 310 311 311 312 313 313 314 314 314 313 312 311 309 309
303 303 304 304 304 305 306 306 306 305 305 305 306 307 307 307 307 307 307 307 307 308 308 308 308 309 309 310 311 311 311 312 313 314 314 315 316 315 315 314 313 311 310
303 303 303 303 304 305 306 306 306 306 305 306 306 307 307 307 308 308 308 308 308 309 309 310 310 310 310 310 310 311 312 313 314 314 315 316 317 317 316 315 314 313 312
303 303 304 303 304 305 306 306 305 305 305 306 306 306 306 307 308 308 308 308 309 309 310 310 311 311 312 312 312 313 313 314 314 315 316 317 318 318 318 317 316 315 314
303 303 304 305 305 305 305 305 305 305 305 305 306 306 306 306 307 307 307 308 309 309 310 310 310 311 311 312 313 313 314 315 315 316 317 318 319 319 318 317 316 316 315
304 304 304 305 305 305 304 303 303 304 305 305 305 305 305 306 306 307 307 308 309 310 310 310 310 310 311 312 313 314 314 315 315 317 318 319 319 319 318 317 317 317 316
305 304 305 305 305 305 304 303 303 304 305 305 305 304 304 304 305 306 307 308 309 310 310 310 310 311 311 312 313 314 315 316 316 317 319 319 320 320 319 318 317 318 318
305 305 306 305 305 305 304 304 304 304 304 304 303 303 303 304 304 306 307 308 308 309 310 310 310 310 311 312 313 314 315 316 316 317 318 319 319 320 319 319 318 318 319
304 304 305 305 304 304 304 304 303 303 303 303 303 302 303 304 305 306 307 308 309 309 310 310 310 310 311 312 313 315 315 316 317 317 318 319 319 319 319 319 318 319 319
303 303 303 303 303 303 302 302 302 302 302 302 302 302 302 303 304 305 306 307 309 310 311 311 310 310 311 312 313 314 315 315 316 317 318 318 318 318 318 318 318 318 320
302 302 302 302 302 302 301 301 301 301 301 301 301 301 301 302 303 304 305 306 308 309 310 310 310 310 311 312 312 313 314 315 316 317 317 317 317 317 317 318 318 318 319
302 302 302 302 302 302 302 301 300 300 299 299 299 300 300 301 302 303 304 305 307 308 309 309 310 310 310 311 311 312 313 313 314 315 317 317 317 317 316 317 318 318 319
302 301 301 301 301 301 301 301 300 299 299 298 298 298 299 300 301 302 303 305 306 307 308 309 309 310 310 310 311 311 312 313 314 315 316 317 317 317 317 317 318 318 319
Height
5683 5681 5678 5675 5673 5670 5667 5664 5661 5658 5655 5651 5647 5644 5641 5637 5633 5629 5624 5620 5615 5610 5605 5600 5596 5590 5585 5580 5574 5569 5563 5557 5553 5551 5545 5539 5533 5527 5522 5516 5511 5505 5499
5674 5672 5669 5666 5663 5660 5657 5654 5650 5647 5643 5640 5636 5633 5629 5625 5621 5616 5612 5607 5602 5597 5592 5587 5581 5576 5570 5565 5559 5553 5547 5540 5535 5531 5527 5521 5515 5508 5503 5498 5492 5486 5479
5666 5663 5660 5657 5653 5650 5646 5643 5639 5636 5632 5628 5624 5620 5617 5612 5608 5603 5599 5593 5588 5583 5578 5572 5567 5561 5555 5549 5543 5537 5530 5524 5517 5511 5507 5502 5496 5490 5484 5478 5473 5466 5460
5657 5654 5651 5648 5644 5640 5636 5632 5628 5624 5620 5616 5612 5608 5604 5600 5595 5591 5586 5580 5575 5569 5563 5558 5552 5546 5540 5533 5527 5520 5513 5506 5500 5493 5488 5483 5477 5470 5463 5458 5453 5447 5441
5649 5646 5642 5638 5635 5631 5626 5622 5618 5613 5609 5604 5600 5596 5591 5587 5583 5578 5573 5567 5562 5556 5550 5543 5537 5530 5524 5517 5510 5503 5496 5489 5482 5475 5469 5463 5457 5450 5444 5438 5432 5427 5421
5640 5637 5633 5629 5625 5621 5616 5612 5607 5602 5597 5593 5589 5584 5579 5575 5570 5565 5560 5554 5548 5542 5536 5529 5522 5515 5509 5501 5494 5486 5479 5472 5465 5458 5451 5444 5438 5431 5425 5418 5411 5406 5402
5631 5628 5624 5620 5615 5611 5606 5602 5597 5592 5587 5582 5577 5572 5568 5563 5558 5552 5547 5541 5535 5529 5522 5515 5509 5501 5494 5486 5479 5471 5463 5455 5448 5441 5434 5426 5420 5413 5406 5400 5392 5385 5379
5622 5618 5614 5610 5606 5601 5596 5591 5586 5581 5576 5570 5566 5561 5556 5551 5545 5540 5534 5528 5522 5515 5508 5501 5494 5487 5479 5471 5464 5457 5449 5441 5433 5426 5418 5410 5402 5394 5387 5380 5373 5367 5361
5613 5609 5605 5600 5596 5592 5587 5581 5576 5570 5565 5559 5554 5549 5544 5539 5533 5527 5521 5515 5509 5502 5495 5487 5479 5472 5465 5457 5450 5443 5436 5428 5419 5411 5403 5394 5386 5378 5370 5362 5355 5348 5343
5604 5600 5595 5591 5586 5581 5576 5571 5565 5559 5554 5549 5543 5538 5532 5527 5521 5515 5508 5502 5496 5489 5482 5474 5466 5458 5450 5442 5435 5428 5421 5414 5406 5398 5390 5381 5372 5364 5355 5346 5338 5331 5325
5595 5591 5586 5581 5576 5571 5566 5560 5554 5549 5543 5538 5532 5527 5521 5515 5509 5502 5495 5488 5482 5475 5468 5461 5453 5445 5437 5429 5422 5415 5407 5399 5392 5384 5376 5368 5360 5351 5342 5333 5324 5316 5310
5586 5581 5577 5571 5566 5560 5555 5549 5543 5537 5532 5526 5521 5515 5509 5502 5495 5489 5482 5475 5468 5461 5454 5447 5440 5432 5424 5417 5409 5402 5394 5386 5378 5370 5363 5355 5347 5338 5330 5321 5312 5304 5297
5576 5571 5566 5561 5555 5549 5544 5538 5532 5526 5520 5514 5508 5502 5496 5490 5483 5475 5469 5462 5454 5447 5441 5433 5426 5419 5411 5404 5397 5389 5381 5373 5365 5358 5350 5342 5334 5325 5317 5309 5301 5293 5286
5566 5561 5556 5550 5544 5538 5533 5526 5520 5514 5508 5502 5496 5490 5484 5477 5470 5463 5456 5449 5442 5435 5428 5420 5413 5405 5398 5391 5384 5376 5368 5361 5353 5345 5337 5329 5321 5314 5306 5298 5291 5284 5278
5555 5550 5545 5539 5533 5527 5521 5515 5508 5502 5495 5489 5483 5477 5470 5464 5457 5449 5442 5435 5428 5421 5415 5408 5400 5393 5386 5379 5371 5364 5356 5349 5341 5333 5325 5318 5311 5303 5295 5287 5280 5274 5268
5544 5539 5533 5527 5522 5516 5509 5503 5496 5490 5483 5476 5470 5463 5457 5450 5443 5436 5429 5422 5415 5408 5402 5395 5388 5381 5374 5367 5360 5353 5345 5338 5330 5322 5315 5307 5300 5293 5285 5278 5270 5264 5258
5532 5527 5521 5515 5509 5503 5496 5490 5484 5478 5471 5464 5457 5450 5444 5437 5431 5424 5417 5410 5403 5397 5390 5383 5377 5370 5363 5355 5349 5342 5335 5327 5319 5312 5305 5298 5290 5283 5275 5268 5262 5256 5250
5520 5514 5508 5502 5496 5489 5483 5477 5471 5464 5458 5452 5444 5437 5431 5424 5418 5412 5405 5399 5392 5385 5379 5372 5365 5358 5352 5345 5338 5331 5324 5317 5310 5303 5295 5288 5280 5273 5266 5260 5253 5247 5242
5507 5501 5495 5489 5482 5476 5469 5463 5457 5451 5444 5438 5432 5425 5419 5412 5406 5400 5393 5387 5381 5374 5367 5361 5354 5347 5341 5334 5327 5321 5314 5307 5300 5293 5286 5279 5271 5264 5258 5251 5245 5239 5233
5494 5488 5481 5475 5468 5462 5456 5449 5443 5437 5431 5425 5419 5413 5406 5400 5394 5388 5382 5376 5369 5363 5356 5349 5343 5336 5330 5324 5317 5311 5304 5297 5291 5284 5277 5270 5263 5256 5250 5244 5238 5232 5226
5480 5474 5468 5461 5454 5448 5442 5435 5429 5423 5417 5411 5406 5400 5394 5388 5383 5377 5370 5364 5358 5351 5345 5338 5332 5326 5320 5313 5307 5301 5295 5288 5282 5275 5269 5262 5255 5248 5242 5236 5230 5224 5219
5466 5460 5453 5447 5440 5434 5427 5421 5415 5409 5404 5398 5393 5387 5381 5376 5370 5365 5359 5352 5346 5340 5334 5328 5322 5316 5310 5304 5298 5292 5285 5279 5273 5266 5260 5253 5247 5241 5235 5229 5223 5218 5212
5451 5444 5438 5432 5425 5419 5413 5407 5401 5395 5390 5385 5380 5374 5369 5364 5358 5353 5347 5341 5335 5329 5323 5317 5311 5305 5300 5294 5288 5282 5276 5270 5264 5258 5251 5245 5239 5233 5227 5222 5216 5211 5205
5434 5428 5422 5416 5410 5404 5398 5392 5387 5382 5377 5372 5367 5362 5357 5352 5346 5341 5335 5330 5324 5318 5312 5306 5301 5295 5290 5284 5278 5272 5266 5260 5255 5249 5243 5237 5231 5225 5220 5215 5209 5204 5199
5417 5411 5405 5400 5394 5389 5383 5378 5373 5368 5363 5359 5354 5349 5344 5339 5334 5329 5323 5318 5312 5307 5301 5296 5290 5285 5279 5274 5268 5262 5256 5251 5245 5240 5234 5228 5223 5218 5212 5207 5202 5197 5192
5401 5396 5390 5385 5379 5374 5369 5364 5359 5354 5350 5345 5340 5336 5331 5326 5321 5316 5311 5306 5301 5295 5290 5285 5279 5274 5268 5263 5258 5252 5247 5241 5236 5231 5225 5220 5215 5210 5205 5200 5196 5191 5186